{"data":{"norad_id":43181,"intl_designator":"2018-014B","name":"KANOPUS-V 4","alt_names":[],"object_type":"PAYLOAD","status":"ACTIVE","operator":null,"country":"CIS","launch_date":"2018-02-01","launch_site_code":"VOSTO","launch_vehicle":null,"mission":null,"orbit_class":"UNKNOWN","rcs_meters":null,"size_class":null,"mass_kg":null,"dimensions":null,"purposes":[],"wikipedia_slug":null,"has_3d_model":false,"image_url":null,"decayed_at":null,"tle_current":{"epoch":"2026-09-20T04:50:33.887904Z","epoch_age_seconds":77369,"freshness":"FRESH","line1":"1 43181U 18014B   26263.20178111  .00001505  00000+0  68173-4 0  9990","line2":"2 43181  97.3482 166.8716 0001850  84.2999 275.8449 15.22365428479199","mean_motion":15.22365428,"eccentricity":0.000185,"inclination_deg":97.3482,"raan_deg":166.8716,"arg_perigee_deg":84.2999,"mean_anomaly_deg":275.8449,"bstar":6.8173e-5,"rev_number":47919,"period_min":94.589641456309,"perigee_km":497.43573712832,"apogee_km":499.98016976109,"semimajor_km":6876.8449534447,"source":"CELESTRAK","updated_at":"2026-09-20T09:00:14.306772Z"}}}